This is the latest recevied weather packets stored in our database for station/object XE2OR-10. If no packets are shown the sender has not sent any weather packets the latest 10 day(s).
| Time | Temp. | Humidity | Pressure | Rain* | Wind** | Luminosity | Snow |
|---|---|---|---|---|---|---|---|
| 1777949032 | 25.56° C | 76% | 1013.5 hPa | 0 mm | - | 0 W/m² | - |
| 1777948729 | 25.56° C | 76% | 1013.6 hPa | 0 mm | - | 0 W/m² | - |
| 1777948429 | 25.56° C | 76% | 1013.5 hPa | 0 mm | - | 0 W/m² | - |
| 1777948129 | 25.56° C | 75% | 1013.5 hPa | 0 mm | - | 0 W/m² | - |
| 1777947832 | 25.56° C | 75% | 1013.5 hPa | 0 mm | - | 0 W/m² | - |
| 1777947529 | 26.11° C | 75% | 1013.5 hPa | 0 mm | - | 0 W/m² | - |
| 1777947232 | 26.11° C | 74% | 1013.2 hPa | 0 mm | - | 0 W/m² | - |
| 1777946928 | 26.11° C | 74% | 1012.9 hPa | 0 mm | - | 0 W/m² | - |
| 1777946629 | 26.11° C | 74% | 1013.3 hPa | 0 mm | - | 0 W/m² | - |
| 1777946329 | 26.11° C | 74% | 1013.1 hPa | 0 mm | - | 0 W/m² | - |
| 1777946033 | 26.67° C | 73% | 1013.1 hPa | 0 mm | - | 0 W/m² | - |
| 1777945729 | 26.67° C | 73% | 1013.1 hPa | 0 mm | - | 0 W/m² | - |
| 1777945433 | 26.67° C | 72% | 1013.3 hPa | 0 mm | - | 0 W/m² | - |
| 1777945129 | 26.67° C | 72% | 1012.9 hPa | 0 mm | - | 0 W/m² | - |
| 1777944829 | 26.67° C | 72% | 1013.1 hPa | 0 mm | - | 0 W/m² | - |
| 1777944529 | 27.22° C | 71% | 1013 hPa | 0 mm | - | 0 W/m² | - |
| 1777944232 | 27.22° C | 71% | 1012.9 hPa | 0 mm | - | 0 W/m² | - |
| 1777943929 | 27.22° C | 71% | 1013.2 hPa | 0 mm | - | 1 W/m² | - |
| 1777943632 | 27.22° C | 71% | 1012.9 hPa | 0 mm | - | 3 W/m² | - |
| 1777943329 | 27.78° C | 70% | 1013.1 hPa | 0 mm | - | 6 W/m² | - |
| 1777943029 | 27.78° C | 70% | 1012.8 hPa | 0 mm | - | 7 W/m² | - |
| 1777942729 | 27.78° C | 70% | 1013.1 hPa | 0 mm | - | 11 W/m² | - |
| 1777942432 | 27.78° C | 70% | 1012.8 hPa | 0 mm | - | 23 W/m² | - |
| 1777942128 | 27.78° C | 69% | 1013 hPa | 0 mm | - | 34 W/m² | - |
| 1777941833 | 27.78° C | 69% | 1013.1 hPa | 0 mm | - | 29 W/m² | - |
* Rain latest hour (hover to see other rain measurements)
** Current wind speed in m/s (hover to see current wind gust speed)